Showing default

START 1, 22561

Orbit data source: Space-Track

START 1, 22561 is a payload satellite owned by VKS (CIS) in LEO that was launched on Thu, 25 Mar 1993 UTC via a START-1 launch vehicle from the Plesetsk Missile And Space Complex (PKMTR). Payload-class satellites include a variety of spacecraft equipped with specific instruments for various scientific and technological missions. These include communications satellites like Starlink; space stations such as the ISS; scientific satellites like the Hubble; Earth observation satellites from companies like Planet Labs, Umbra, and HawkEye 360; GPS; miniature CubeSats for education and research; and military/defense satellites.

Loading next visibility...
Identifier
22561, 1993-014A
Orbit
LEO
Country
Flag of CISCIS
Related business
Manufacturer
Kompleks-MIT
Mission
Defense Technology
Bus & Motor
EKA, Unknown motor
Mass
260 kg wet, 260 kg dry
Launch date (UTC)
1993-03-25 (33 years ago)
Launch vehicle
START-1
Launch site
Plesetsk Missile And Space Complex (PKMTR)
Object type
Payload
Rocket body
Debris
Shape & HBR
Cyl, 0.7 m
Radar Cross Section
1.414 m², Large (>1 m²)

Expand to show TLE details & history
Last TLE update: 12 hours ago

TLE from 12 hours ago
0 START 1
1 22561U 93014A   25294.72528860  .00000122  00000-0  50652-4 0  9990
2 22561  75.7636  39.8293 0193185   0.4198 359.7082 14.22512005689958
Epoch: 2025-10-21T17:24Z
TLE epoch observation values (Epoch: 2025-10-21T17:24:24.935Z)
Latitude
0.00002°
Longitude
108.31628°
Altitude
680.539 km
Speed
7.589 km/s
True Right ascension
02h 39m 19s
True Declination
0° 00' 00"
Sunlit
Object was in full shadow at epoch
Visualization orbit readout
Latitude
Unknown
Longitude
Unknown
Altitude
Unknown
Speed
Unknown
Apparent Right ascension
Unknown
Apparent Declination
Unknown
Sunlit
N/A
Visualization observer readout
Local Sidereal Time
00:04:30
Azimuth
Unknown
Elevation
Unknown
Doppler factor
Unknown
Orbital elements
Apogee altitude
953.317 km
Perigee altitude
675.42 km
Semi-major axis
7,192.505 km
Eccentricity
0.01932
Inclination
75.7636°
RAAN
39.8293°
Arg. of periapsis
0.4198°
True anomaly
359.69665°
Mean anomaly
359.7082°
Eccentric anomaly
359.70245°
Mean motion
3.55814 °/min
Orbital period
101.18 mins
BSTAR
0.000050652
Loading maneuver chart data...
Computing Atmospheric mass density...
Loading historical data...
Loading historical data...
Loading historical data...
Loading historical data...
Loading historical data...
Loading historical data...
Loading historical data...

Documentation

Showing up to 5 results
|